Regional Weather Roundup
Issued by NWS Bismarck, ND

Current Version | Previous Version | Text Only | Print | Product List | Glossary On
Versions: 1 2 3 4 5 6 7 8 9 10 11 12 13 14 15 16 17 18 19 20 21 22 23 24 25 26 27 28 29 30 31 32 33 34 35 36 37 38 39 40 41 42 43 44 45 46 47 48 49 50
000
ASUS43 KBIS 250410
RWRBIS

NWR BROADCAST TEXT
NATIONAL WEATHER SERVICE BISMARCK ND
1100 PM CDT WED APR 24 2019

NOTE: "FAIR" INDICATES FEW OR NO CLOUDS BELOW 12,000 FEET WITH NO
SIGNIFICANT WEATHER AND/OR OBSTRUCTIONS TO VISIBILITY.


CITY           SKY/WX    TMP DP  RH WIND       PRES   REMARKS
WILLISTON      MOCLDY    53  26  35 CALM      29.89R
MINOT          CLEAR     51  22  31 W9        29.84R
MINOT AFB      CLEAR     38  22  52 NW9       29.83R
BISMARCK       CLOUDY    56  28  34 NW8       29.87R
DICKINSON      PTCLDY    49  32  52 W3        29.89R
GARRISON         N/A     41  24  51 NW8       29.86R
HETTINGER ARPT CLOUDY    47  43  86 NW5       29.92R
JAMESTOWN      CLOUDY    49  33  54 NW9       29.81R
CARRINGTON     FAIR      46  34  61 W8        29.84R
HAZEN          FAIR      37  28  70 S5        29.90R
MANDAN         FAIR      50  32  50 NW7       29.88R
OAKES          MOCLDY    55  46  71 N9        29.81R
RUGBY          FAIR      41  28  60 NW7       29.82R
STANLEY        FAIR      41  25  52 NW8       29.88R
TIOGA          MOCLDY    45  23  42 NW5       29.90R
WATFORD CITY   FAIR      50  30  46 CALM      29.90R
$$

CITY           SKY/WX    TMP DP  RH WIND       PRES   REMARKS
GRAND FORKS    PTCLDY    48  35  60 W7        29.75R
GRAND FORKS AF CLEAR     52  30  43 NW7       29.79R
DEVILS LAKE    CLEAR     48  31  51 W8        29.81R
FARGO          MOCLDY    54  40  59 NW6       29.76R
CANDO          FAIR      41  28  60 W7        29.83R
CAVALIER       FAIR      50  30  46 W8        29.75R
GRAFTON        FAIR      52  32  46 W10       29.77R
GWINNER          N/A     57  39  51 N6        29.79R
LANGDON        FAIR      43  43 100 W8        29.79R
ROLLA          FAIR      45  23  42 NW9       29.82R
WALHALLA       FAIR      54  27  35 NW8       29.76R
$$

CITY           SKY/WX    TMP DP  RH WIND       PRES   REMARKS
ABERDEEN       LGT RAIN  60  42  51 NW8       29.83R
MOBRIDGE       CLOUDY    56  43  61 N5        29.84R
BUFFALO          N/A     50  43  77 NW8       29.91R
RAPID CITY     CLOUDY    47  44  90 NW9       29.95F
GLASGOW        CLEAR     48  34  58 SW6       29.95R
SIDNEY         PTCLDY    50  35  56 NW13      29.92R
WOLF POINT     PTCLDY    52  39  61 W15       29.94R
GLENDIVE       CLOUDY    53  36  52 NW9       29.95R
MILES CITY     CLEAR     48  39  71 NW9       29.97R
BAKER          MOCLDY    48  38  68 CALM      29.95R
$$

CITY           SKY/WX    TMP DP  RH WIND       PRES   REMARKS
BILLINGS       CLEAR     51  37  58 S6        30.06R
GREAT FALLS    CLEAR     45  28  51 W8        30.05R
REGINA         CLEAR     43  18  36 N10       29.88R
ESTEVAN        CLEAR     41  21  45 NW9       29.88R
$$




USA.gov is the U.S. government's official web portal to all federal, state and local government web resources and services.